BHUTAN-1 (43591 NORAD) Tracking and Keplerian Element Data

This shows tracking and keplerian element data for the satellite.

Feedback or suggestion? Click here.




ElementValue
Catalog43591
NameBHUTAN-1
Epoch Orbit3964
Epoch Day111.85311045
Epoch Year2019
RAAN274.0288
Inclination51.6378
Eccentricity0.0005663
Argument of Perigee295.0566
Mean Anonmoly64.9839
Mean Motion15.60361538
Decay Rate0.00013907
L11 43591U 98067PF 19111.85311045 .00013907 00000-0 17225-3 0 9992
L22 43591 51.6378 274.0288 0005663 295.0566 64.9839 15.60361538 39647

Live tracking and technical data element details for BHUTAN-1 (NORAD 43591). BHUTAN-1 can be tracked NOW for your location showing map with azimuth and elevation plus other details from your city location.

Track the satellite on the map from your city or location and see movement details for azimuth, elevation, latitude, longitude, range, height, and movement on the map or in text.







IsCatalogInMostPopularTable: catalog: 43591, numindb: 107
Update: records affected: 1



GetName: 43591 BHUTAN-1

Hit Count: updated at: Tue, 23 Apr 2019 20:45:46 GMT